User: anonymous   Login
Location: Caltech
(34.1382°N, 118.1253°W)
Time: 03:06:10
(UTC-08:00)
Language:

CZ-2C R/B - Orbit

View from above orbital plane
View from above orbital plane
View from above satellite
View from above satellite

Ground track
Ground track

The orbit data is extracted from the following two-line orbital elements,

1 36089U 09061B   17023.14428019  .00000122  00000-0  41547-4 0  9994
2 36089  98.0503  31.4015 0083075 131.8415 270.6165 14.49635673380694
Epoch (UTC): 23 January 2017 03:27:45
Eccentricity: 0.0083075
inclination: 98.0503°
perigee height: 668 km
apogee height: 786 km
right ascension of ascending node: 31.4015°
argument of perigee: 131.8415°
revolutions per day: 14.49635673
mean anomaly at epoch: 270.6165°
orbit number at epoch: 38069

The dashed part of the orbit path shows where the satellite is in the earth's shadow,  

DLR